East Milton, MA

2:03 PM EDT on March 27, 2017 (GMT -0400)
East Milton

Weather History for KMQE - August, 2014

Change the Weather History Date:

Wednesday, August 27, 2014

  Actual Average (KOWD) Record (KOWD)
Temperature  
Mean Temperature 76 °F -  
Max Temperature 89 °F 77 °F 89 °F (2014)
Min Temperature 64 °F 54 °F 33 °F (1996)
Cooling Degree Days 10    
Growing Degree Days 26 (Base 50)    
Moisture  
Dew Point 62 °F    
Average Humidity 67    
Maximum Humidity 91    
Minimum Humidity 44    
Precipitation  
Precipitation 0.02 in - - ()
Sea Level Pressure  
Sea Level Pressure 29.97 in    
Wind  
Wind Speed 13 mph (SW)    
Max Wind Speed 17 mph    
Max Gust Speed 24 mph    
Averages and records for this station are not official NWS values.
T = Trace of Precipitation, MM = Missing Value Source: NWS Daily Summary

Daily Weather History Graph

Daily Weather History Graph

Search for Another Location

Airport or City:

Trip Planner

Search our weather history database for the weather conditions in past years. The results will help you decide how hot, cold, wet, or windy it might be!

Date:

Astronomy

Aug. 27, 2014 Rise Set
Actual Time 6:04 AM EDT 7:26 PM EDT
Civil Twilight 5:35 AM EDT 7:55 PM EDT
Nautical Twilight 5:00 AM EDT 8:30 PM EDT
Astronomical Twilight 4:23 AM EDT 9:07 PM EDT
Moon 8:00 AM EDT 8:13 PM EDT
Length of Visible Light 14h 20m
Length of Day
13h 22m
Waxing Crescent, 4% of the Moon is Illuminated
Aug 27
Waxing Crescent
Sep 2
First Quarter
Sep 8
Full
Sep 15
Last Quarter
Sep 24
New

Hourly Weather History & Observations

Time (EDT) Temp. Heat Index Dew Point Humidity Pressure Visibility Wind Dir Wind Speed Gust Speed Precip Events Conditions
12:54 AM 64.9 °F - 55.9 °F 73% 30.08 in - SSW 15.0 mph - N/A   Unknown
1:54 AM 64.0 °F - 55.9 °F 75% 30.06 in - SSW 13.8 mph - N/A   Unknown
2:54 AM 64.9 °F - 55.0 °F 70% 30.04 in - SW 12.7 mph - N/A   Unknown
3:54 AM 64.0 °F - 55.9 °F 75% 30.03 in - WSW 12.7 mph - N/A   Unknown
4:54 AM 64.0 °F - 57.0 °F 78% 30.02 in - SW 13.8 mph - N/A   Unknown
5:54 AM 64.9 °F - 57.9 °F 78% 30.02 in - SW 12.7 mph - N/A   Unknown
6:54 AM 64.9 °F - 59.0 °F 81% 30.03 in - SW 11.5 mph - N/A   Unknown
7:54 AM 68.0 °F - 60.1 °F 76% 30.03 in - SW 11.5 mph - N/A   Unknown
8:54 AM 73.0 °F - 62.1 °F 68% 30.02 in - SW 11.5 mph - N/A   Unknown
9:54 AM 78.1 °F - 62.1 °F 58% 30.01 in - SW 11.5 mph - N/A   Unknown
10:54 AM 82.0 °F 83.1 °F 63.0 °F 52% 30.00 in - SW 12.7 mph - N/A   Unknown
11:54 AM 84.9 °F 85.9 °F 63.0 °F 48% 29.98 in - SW 12.7 mph 20.7 mph N/A   Unknown
12:54 PM 87.1 °F 87.8 °F 63.0 °F 44% 29.96 in - SW 15.0 mph - N/A   Unknown
1:54 PM 87.1 °F 88.9 °F 64.9 °F 48% 29.94 in - SSW 17.3 mph 24.2 mph N/A   Unknown
3:54 PM 87.1 °F 89.9 °F 66.9 °F 51% 29.90 in - SW 10.4 mph 23.0 mph N/A   Unknown
4:54 PM 84.9 °F 87.6 °F 66.9 °F 55% 29.90 in - SW 13.8 mph 20.7 mph N/A   Unknown
5:54 PM 84.0 °F 86.5 °F 66.9 °F 56% 29.89 in - SW 12.7 mph - N/A   Unknown
6:54 PM 80.1 °F 82.1 °F 66.0 °F 62% 29.89 in - SW 11.5 mph - N/A   Unknown
7:54 PM 78.1 °F - 64.9 °F 64% 29.91 in - SW 9.2 mph - N/A   Unknown
8:54 PM 77.0 °F - 64.9 °F 66% 29.92 in - SW 11.5 mph - N/A   Unknown
9:54 PM 71.1 °F - 68.0 °F 90% 29.90 in - West 10.4 mph - 0.02 in   Unknown
10:54 PM 72.0 °F - 69.1 °F 91% 29.89 in - SW 10.4 mph - N/A   Unknown
11:54 PM 71.1 °F - 66.9 °F 87% 29.88 in - SW 9.2 mph - N/A   Unknown